Powrót do katalogu

METEOR 2-17 DEB

LostPO
NORAD 28995·DEBRIS·🇷🇺 Russia

Wystrzelony Jan 30, 1988 z Plesetsk Cosmodrome

Loading…

Następne Przeloty (najbliższe 24 godziny)

TLE

NieaktualneSource: Space-Track

Epoka: Jul 2, 2025, 05:25 UTC

1 28995U 88005K   25183.22607351  .00001442  00000-0  88062-3 0  9997
2 28995  82.5305 166.2735 0006639  93.6115 266.5816 14.05356155  1209

Śledź METEOR 2-17 DEB w czasie rzeczywistym z AllMySat

Download on the App Store